This demonstration page uses our WeatherBlox Daily Observations layout. Learn more.

Left ArrowRight Arrow

Hourly Observations for June 1, 2019

Temp ( °F °C ) Dew Point ( °F °C ) Humidity (%) Winds ( mph kmh ) Pressure ( in mb ) Visibility ( mi km ) Precip ( " mm )
12:56 am 00:56 Clear 70 21 55 13 60 60 Calm 29.82 1010 10 16 0.00 0.00
3:56 am 03:56 Clear 64 18 55 13 73 73 Calm 29.83 1010 10 16 0.00 0.00
4:56 am 04:56 Clear 64 18 55 13 73 73 Calm 29.79 1009 10 16 0.00 0.00
5:56 am 05:56 Partly Cloudy 64 18 57 14 78 78 Calm 29.79 1009 10 16 0.00 0.00
6:56 am 06:56 Mostly Cloudy with Light Rain 64 18 59 15 83 83 Calm 29.80 1009 5 8 0.00 0.03
7:09 am 07:09 Mostly Cloudy with Thunderstorms 64 18 59 15 83 83 E 10 17 29.77 1008 8 13 0.00 0.00
7:36 am 07:36 Sunny 68 20 61 16 78 78 N 6 9 29.83 1010 10 16 0.00 0.00
7:57 am 07:57 Sunny 68 20 61 16 78 78 N 6 9 29.83 1010 10 16 0.00 0.03
8:56 am 08:56 Sunny 72 22 57 14 61 61 NNE 3 6 29.82 1010 10 16 0.00 0.00
9:56 am 09:56 Sunny 77 25 57 14 51 51 Calm 29.83 1010 10 16 0.00 0.00
10:56 am 10:56 Sunny 81 27 55 13 42 42 Calm 29.83 1010 10 16 0.00 0.00
11:56 am 11:56 Sunny 82 28 50 10 32 32 Calm 29.83 1010 10 16 0.00 0.00
12:56 pm 12:56 Sunny N/A N/A N/A NNE 7 11 N/A N/A 0.00 0.00
1:56 pm 13:56 Mostly Sunny 84 29 52 11 33 33 NNE 10 17 29.83 1010 10 16 0.00 0.00
2:56 pm 14:56 Sunny 82 28 55 13 40 40 N 8 13 29.83 1010 2 3 0.00 0.00
3:56 pm 15:56 Sunny 81 27 57 14 45 45 N 13 20 29.84 1010 7 11 0.00 0.00
4:56 pm 16:56 Sunny 81 27 52 11 37 37 N 14 22 29.84 1010 7 11 0.00 0.00
5:56 pm 17:56 Sunny 79 26 54 12 42 42 N 14 22 29.84 1011 7 11 0.00 0.00
6:56 pm 18:56 Sunny 75 24 50 10 41 41 N 12 19 29.85 1011 7 11 0.00 0.00
7:56 pm 19:56 Sunny 73 23 48 9 41 41 N 9 15 29.85 1011 7 11 0.00 0.00
8:56 pm 20:56 Clear 70 21 50 10 50 50 NNW 7 11 29.86 1011 7 11 0.00 0.00
9:56 pm 21:56 Clear 68 20 50 10 53 53 NNW 7 11 29.88 1012 7 11 0.00 0.00
10:56 pm 22:56 Clear 68 20 66 19 94 94 N 8 13 29.89 1012 7 11 0.00 0.00
11:56 pm 23:56 Clear 66 19 50 10 56 56 NNW 8 13 29.93 1014 7 11 0.00 0.00

Powered by AerisWeather